Flag for U.S.A. Weather past 2 weeks in Provo, Utah, U.S.A.

Now
50 °F

Broken clouds.


Feels Like: 49 °F
Forecast: 43 / 56 °F
Wind: 3 mph from North

Location: Provo Municipal

Current Time: Apr 25, 2015 at 12:39:35 PM

Latest Report: Apr 25, 2015 at 11:50 AM


Visibility: 15 mi

Pressure: 29.80 "Hg

Humidity: 67%

Dew point: 39 °F

Location of ProvoLocation

Historic Weather in Provo — Graph

°F

Provo temperature yesterday

Maximum temperature yesterday: 66 °F (at 2:47 PM)
Minimum temperature yesterday: 43 °F (at 5:15 AM)
Average temperature yesterday: 49 °F

Past Weeks' High & Low Weather Summary

 TemperatureHumidityPressure
High73 °F (Apr 14, 12:59 PM)100% (Apr 14, 3:50 PM)30.25 "Hg (Apr 14, 3:50 PM)
Low28 °F (Apr 16, 5:15 AM)11% (Apr 13, 7:55 PM)29.64 "Hg (Apr 14, 2:50 PM)
Average48 °F53%29.96 "Hg
* Reported Apr 10 10:59 AM — Apr 25 10:59 AM, Provo, Weather by CustomWeather, © 2015

Note: Actual official high and low records may vary slightly from our data, if they occured in-between our weather recording intervals... More about our weather records

Advertising

Provo weather history for previous 24 hours

 ConditionsComfort  
Time TempWeatherWind HumidityBarometerVisibility
10:59 AM
Sat, Apr 25
50 °FBroken clouds.5 mph71%29.82 "Hg15 mi
9:55 AM48 °FBroken clouds.No wind71%29.83 "Hg15 mi
8:55 AM45 °FBroken clouds.No wind81%29.83 "Hg10 mi
7:55 AM43 °FBroken clouds.No wind87%29.83 "Hg10 mi
6:49 AM39 °FPassing clouds.No wind87%29.83 "Hg10 mi
6:35 AM39 °FClear.3 mph87%29.83 "Hg10 mi
6:15 AM39 °FClear.5 mph81%29.83 "Hg10 mi
5:55 AM39 °FClear.3 mph87%29.83 "Hg10 mi
5:35 AM41 °FClear.6 mph81%29.83 "Hg10 mi
5:15 AM43 °FClear.6 mph81%29.83 "Hg10 mi
4:55 AM43 °FClear.5 mph76%29.83 "Hg10 mi
4:35 AM41 °FClear.5 mph87%29.84 "Hg10 mi
4:15 AM43 °FClear.6 mph81%29.84 "Hg10 mi
3:55 AM45 °FPassing clouds.5 mph76%29.84 "Hg10 mi
3:35 AM45 °FOvercast.8 mph81%29.84 "Hg10 mi
3:15 AM45 °FOvercast.10 mph81%29.83 "Hg10 mi
2:55 AM45 °FPassing clouds.12 mph76%29.83 "Hg10 mi
2:35 AM45 °FPartly cloudy.7 mph71%29.83 "Hg10 mi
2:15 AM45 °FPassing clouds.7 mph71%29.83 "Hg10 mi
1:55 AM46 °FOvercast.16 mph76%29.82 "Hg10 mi
1:35 AM46 °FMostly cloudy.7 mph76%29.83 "Hg10 mi
1:15 AM48 °FOvercast.6 mph71%29.82 "Hg10 mi
12:55 AM46 °FMostly cloudy.No wind76%29.82 "Hg10 mi
12:35 AM46 °FPassing clouds.10 mph76%29.82 "Hg10 mi
12:15 AM46 °FClear.8 mph82%29.82 "Hg10 mi
11:55 PM
Fri, Apr 24
46 °FClear.13 mph82%29.82 "Hg10 mi
11:35 PM46 °FPassing clouds.10 mph87%29.82 "Hg10 mi
11:15 PM46 °FPassing clouds.5 mph82%29.83 "Hg10 mi
10:55 PM46 °FOvercast.6 mph76%29.82 "Hg10 mi
10:35 PM48 °FOvercast.12 mph71%29.82 "Hg10 mi
10:15 PM48 °FMostly cloudy.13 mph76%29.80 "Hg10 mi
9:35 PM48 °FMostly cloudy.3 mph82%29.78 "Hg10 mi
9:15 PM50 °FMostly cloudy.No wind76%29.77 "Hg10 mi
8:55 PM48 °FMostly cloudy.6 mph82%29.76 "Hg10 mi
7:59 PM48 °FScattered showers. Mostly cloudy.8 mph82%29.77 "Hg10 mi
6:56 PM52 °FScattered showers. More clouds than sun.13 mph62%29.72 "Hg10 mi
4:53 PM57 °FScattered showers. Broken clouds.22 mph55%29.72 "Hg10 mi
3:47 PM64 °FScattered showers. Broken clouds.26 mph30%29.68 "Hg15 mi
2:47 PM66 °FScattered showers. Broken clouds.16 mph32%29.68 "Hg15 mi
1:47 PM63 °FScattered showers. Broken clouds.6 mph32%29.69 "Hg15 mi
12:55 PM61 °FScattered showers. Broken clouds.No wind36%29.72 "Hg15 mi
Weather by CustomWeather, © 2015

See weather overviewHow to use our weather pages